Regional Weather Roundup
Issued by NWS Wakefield, VA

Home | Current Version | Previous Version | Graphics & Text | Print | Product List | Glossary On
Versions: 1 2 3 4 5 6 7 8 9 10 11 12 13 14 15 16 17 18 19 20 21 22 23 24 25 26 27 28 29 30 31 32 33 34 35 36 37 38 39 40 41 42 43 44 45 46 47 48
000
ASUS41 KAKQ 040610
RWRAKQ

REGIONAL WEATHER ROUNDUP
NATIONAL WEATHER SERVICE WAKEFIELD VA
100 AM EST WED MAR 04 2015

Note: "fair" indicates few or no clouds below 12,000 feet with no
significant weather and/or obstructions to visibility. * = Denotes
station may not report precipitation (e.g., rain,snow,etc.),
thunder or fog.

VAZ042-051-052>054-056-040700-
NORTHERN VIRGINIA

CITY           SKY/WX    TMP DP  RH WIND       PRES   REMARKS
WASH NATIONAL  CLOUDY    41  34  76 S12       29.84F
DULLES         MOCLDY    36  31  82 S15G28    29.82F
FORT BELVOIR   MOCLDY    39  35  83 VRB7      29.85F
QUANTICO       CLOUDY    41  34  76 SW13G21   29.87F
FREDERICKSBRG* CLOUDY    41  37  84 SW15G23   29.89F
STAFFORD*      CLOUDY    39  34  80 SW9       29.92F
WARRENTON      MOCLDY    38  37  95 S10       29.84F
CULPEPER*      MOCLDY    39  36  87 S12G17    29.85F
MANASSAS*      MOCLDY    37  36  93 S7        29.84F
LEESBURG*      MOCLDY    37  34  87 S10       29.82F
WINCHESTER     MOCLDY    41  32  70 SW10G17   29.77F
FRONT ROYAL*   FAIR      45  37  76 SW9G17    29.77F
LURAY*         MOCLDY    45  39  81 SW16      29.81F
$$

VAZ048-049-060>072-079>083-040700-
CENTRAL AND SOUTH CENTRAL VIRGINIA

CITY           SKY/WX    TMP DP  RH WIND       PRES   REMARKS
RICHMOND       LGT RAIN  41  38  89 S13       29.95F FOG
CHESTERFIELD*  NOT AVBL
PETERSBURG*    RAIN      42  41  97 SW7       29.98F
HANOVER        LGT RAIN  41  39  93 S9        29.95F
TAPPAHANNOCK*  LGT RAIN  41  37  86 S9        29.94F
QUINTON*       CLOUDY    39  38  96 SW9       29.97F
CHARLOTTSVILLE MOCLDY    36  32  85 S10       29.87F
GORDONSVILLE*  CLOUDY    37  33  87 SW16G24   29.87F
ORANGE*        CLOUDY    37  36  93 S9G17     29.89F
LOUISA*        MOCLDY    39  36  87 SW10G17   29.89F
BUMPASS*       CLOUDY    38  36  91 SW9       29.90F
FARMVILLE*     CLOUDY    41  41 100 S12       29.92F
CREWE*         CLOUDY    39  38  94 S7        29.95F
FORT PICKETT*  CLOUDY    39  38  97 SW13G18   29.97F
CHASE CITY*    CLOUDY    41  41 100 SW5       29.99F
CLARKSVILLE*   CLOUDY    37  37 100 SW7       30.00F
SOUTH HILL*    CLOUDY    37  37  99 S9        30.06F
LAWRENCEVILLE* CLOUDY    38  38 100 SW6       30.00F
EMPORIA*       DRIZZLE   37  37 100 S3        30.04F
$$

VAZ088>098-040700-
SOUTHEAST VIRGINIA

CITY           SKY/WX    TMP DP  RH WIND       PRES   REMARKS
NORFOLK        LGT RAIN  44  41  89 SW18      29.99F FOG
VIRGINIA BEACH LGT RAIN  48  44  86 SW17      29.99F FOG
NORFOLK NAVAL  HVY RAIN  45  40  82 SW10      30.01F FOG
WEST POINT*    CLOUDY    41  38  89 S6        29.99F
SALUDA*        CLOUDY    39  37  94 SW7       29.96F
NEWPORT NEWS   RAIN      40  37  89 SW10      30.00F FOG
LANGLEY AFB    LGT RAIN  40  39  96 SW10      29.99S FOG
FORT EUSTIS    LGT RAIN  38  38 100 W5        29.99F
WILLIAMSBURG*  CLOUDY    39  39 100 SW8       30.01S
HR EXEC AP*    CLOUDY    41  37  87 SW8       30.03F
FRANKLIN*      RAIN      38  37  98 SW5       30.03F
WAKEFIELD      LGT RAIN  39  36  89 S8        30.01F FOG
$$

VAZ020-022-025-037-045-040700-
WEST CENTRAL AND SOUTHWEST VIRGINIA

CITY           SKY/WX    TMP DP  RH WIND       PRES   REMARKS
STAUNTON*      CLOUDY    38  33  80 S7        29.86F
WAYNESBORO*    CLOUDY    36  32  85 CALM      29.86F
HOT SPRINGS VA RAIN      49  49 100 W28       29.85F VSB<1/4
LYNCHBURG      MOCLDY    37  36  96 SW9       29.94F FOG
DANVILLE       CLOUDY    40  38  93 SW10      30.01F
SOUTH BOSTON*  CLOUDY    41  39  95 SW7       30.00F
MARTINSVILLE   CLOUDY    40  40 100 SW5       30.02F FOG
ROANOKE        PTCLDY    37  35  92 N3        29.95F FOG
BLACKSBURG     CLOUDY    37  36  96 W3        29.96F FOG
DUBLIN*        CLOUDY    39  39 100 CALM      29.95F FOG
MARION*        LGT RAIN  40  39  96 CALM      29.97F VSB 1/2
HILLSVILLE*    CLOUDY    45  44  99 S8        29.95F
RICHLANDS*     CLOUDY    53  51  94 SW14G23   29.91F
WISE*          FOG       48  48 100 SW20G25   29.92F VSB<1/4
ABINGDON*      CLOUDY    44  44 100 CALM      29.95F FOG
$$

MDZ021>025-VAZ099-100-040700-
SOUTHERN MARYLAND AND THE DELMARVA PENINSULA

CITY           SKY/WX    TMP DP  RH WIND       PRES   REMARKS
PATUXENT RIVER CLOUDY    42  39  89 SW21G28   29.90F
BAY BRIDGE APT   N/A     39  37  93 S13G18    29.84F
LEONARDTOWN    CLOUDY    41  37  87 SW13G18   29.90F
DOVER          CLOUDY    39  39 100 SW20G26   29.83F
GEORGETOWN     CLOUDY    36  35  96 SW14      29.90F FOG
EASTON         CLOUDY    42  42 100 SW14G21   29.90F
CAMBRIDGE      CLOUDY    41  37  87 S9G16     29.89F
SALISBURY      CLOUDY    41  38  89 SW14G21   29.92F FOG
OCEAN CITY     CLOUDY    42  41  96 W16G23    29.92F FOG
WALLOPS ISLAND CLOUDY    42  41  96 W10G18    29.95F FOG
ACCOMACK*      FOG       39  36  87 SW14      29.96F VSB 1
$$

NCZ012>017-030>032-040700-
NORTH CENTRAL AND EASTERN NORTH CAROLINA

CITY           SKY/WX    TMP DP  RH WIND       PRES   REMARKS
ROANOKE RAPIDS CLOUDY    37  37 100 SW8       30.04F FOG
RALEIGH        FOG       38  36  92 SW7       30.06F VSB 1/2
ELIZABETH CITY LGT RAIN  46  45  96 SW9       30.04F FOG
AHOSKIE*       DRZL/FOG  38  37  99 CALM      30.05F VSB 1
EDENTON*       FOG       42  42  98 SW5       30.05F VSB 1/4
CURRITUCK*     DRIZZLE   48  47  95 SW8       30.04F
KILL DEVIL HLS CLOUDY    57  57 100 SW8       30.03F FOG
MANTEO         FOG       54  54 100 SW14      30.05F VSB 3/4
CAPE HATTERAS  LGT RAIN  57  57 100 W14G23    30.09S VSB 1
TARBORO*       CLOUDY    40  39  97 SW6       30.08F FOG
GOLDSBORO      CLOUDY    41  41 100 W6        30.07S FOG
WASHINGTON     FOG       43  43  99 SW6       30.07F VSB 3/4
GREENVILLE     CLOUDY    41  41 100 W3        30.09F FOG
NEW BERN       FOG       54  53  97 SW9       30.09F VSB 3/4
WILMINGTON     FOG       46  45  96 CALM      30.11F VSB 1/4
$$

VAZ048-040700-
ELSEWHERE

CITY           SKY/WX    TMP DP  RH WIND       PRES   REMARKS
HARRISBURG PA  FRZ RAIN  33  30  88 CALM      29.82S FOG
BALTIMORE      MOCLDY    38  35  89 SW7       29.80F
ANNAPOLIS      MOCLDY    39  36  89 S6        29.83F
ANDREWS AFB    MOCLDY    39  36  89 SW16G24   29.82F
PHILADELPHIA   DRIZZLE   34  32  92 S9        29.84F FOG
HENDERSON NC   CLOUDY    38  37  96 SW12      30.02F FOG
GREENSBORO     DRZL/FOG  39  38  96 SW9       30.02F VSB 1
ROCKY MOUNT    CLOUDY    40  39  97 SW7       30.07F FOG
$$

VAZ100-040700-
MARINE

STATION/POSITION TIME  TEMP    WIND        PRES    WAVE   SWELL
                       AIR SEA DIR/SP/G            HT/PER HT/PER
                 (UTC) (F)     (DEG/KT/KT) (MB)    (FT/S) (FT/S)
BRANDYWINE LGT   0600   36 31  220/ 24/ 26 1011.5F
CAPE MAY NJ      0600   35 33  220/ 14/ 18 1011.5F
LEWES DE         0600   39 30  230/  9/ 14 1012.0F
15NM E FENWICK I 0600   36 35              1012.9F   3/ 4
OCEAN-CITY-INLET 0600   41 33  260/ 12/ 16 1013.0R
WACHAPREAGUE VA  0600   41 36  250/  8/ 17 1014.3F
THOMAS POINT MD  0600   36 31  190/ 15/ 16 1011.6F
COVE POINT MD    0600   42     240/ 22/ 26 1011.7R
SOLOMONS ISLAND  0600      33                N/A
BISHOPS HEAD MD  0600   36 33  190/  8/  9 1012.8F
CAMBRIDGE MD     0600   38 32  200/  9/ 14 1012.1R
LEWISETTA VA     0600          230/ 15/ 20 1012.6F
RAPPAHANNOCK LGT 0600          200/ 15/ 16 1015.1F
STINGRAY PT      0600   37     240/ 12/ 14   N/A
YORK RVR RNG VA  0600   38     240/ 15/ 17 1014.5F
YORKTOWN VA      0600   38 34  220/ 14/ 19 1014.7F
DOMINION TERM VA 0600   38     240/  8/ 10 1016.3S
KIPTOPEKE VA     0600      38  250/  9/ 13   N/A
CHES BAY BRIDGE  0600   44 34  210/ 15/ 16 1015.0S
CAPE HENRY VA    0600   47     210/ 11/ 16 1014.0F
CHESAPEAKE LGHT  0500   42     210/ 24/ 25 1015.8F
WILLOUBY STN VA  0600          240/ 11/ 11 1016.1F
S CRANEY ISL VA  0600          220/  8/ 12 1015.8F
CAPE HENRY BUOY  0600      35                N/A     3/10
1ST LANDING BUOY 0600   41     230/ 14/ 16 1015.2F
OFFSHORE WE BUOY 0600      36                N/A     3/ 6   2/ 9
64NM E OF VA BCH 0600   58 57  210/ 27/ 31 1015.4F   6/ 6   2/13
DUCK PIER NC     0600   55 35  210/ 14/ 20 1016.1F
44100 DUCK FRF   0600      37                N/A     3/ 5
44056 DUCK FRF   0600      35                N/A     3/ 5
OREGON INLET NC  0600   49 42  200/ 15/ 18 1017.7F
HATTERAS NC      0600   57 43  240/ 11/ 14 1019.2S
CAPE LOOKOUT NC  0500   60     200/ 11/ 14 1019.5F
$$



USA.gov is the U.S. government's official web portal to all federal, state and local government web resources and services.